Antonio Milani

Chief Scout - Livorno
18 Dec 2027
Saturday
Process

Personality

Adaptability (2) Ambition (14) Controversy (6) Loyalty (15) Pressure (1) Professionalism (18) Sportsmanship (1) Temperament (10)

Profile

Coaching Style Democratic
License National A
Determination 7
Man Management 4
Motivating 4
Discipline 9
Job Satisfaction
100%
Fatigue
0%
Role Chief Scout
Wage 15.8K p/w
Contract 14.03.2030

Performance

Behaviour Good
Training Effectiveness
24%
Player Development
30%
Injury Prevention
35%
Tactical Implementation
10%

Currently Monitoring

111
Player Club Status Ability Confidence Watched Last Observed Latest Vote
Gustavo Viera Cerro Largo Active 92 / 93 40% 2 31.08.2027 -
Javier Martínez Almirante Brown Active 98 / 93 40% 1 31.08.2027 -
Lisandro Cabrera Maipú Active 117 / 121 40% 1 30.08.2027 -
Harrison Gyan BA All Stars Active 108 / 114 40% 1 30.08.2027 -
Alejandro Melo Temperley Active 108 / 109 40% 2 28.08.2027 -
Tomás Bolzicco Chaco For Ever Active 113 / 95 40% 2 28.08.2027 -
Facundo Castelli Estudiantes Active 126 / 102 40% 2 26.08.2027 -
Blas Armoa Gimnasia y Esgrima Active 127 / 133 40% 1 25.08.2027 -
Santiago Sala Güemes Active 104 / 99 40% 1 23.08.2027 -
Agustín Gallo Tristán Suárez Active 115 / 129 40% 1 23.08.2027 -
Ezekiel Edidiong Enyimba Active 83 / 81 40% 2 22.08.2027 -
Jere Vrcić Birkirkara Active 90 / 110 40% 1 21.08.2027 -
Daniele Ferrandino Pergolettese Active 102 / 104 40% 1 20.08.2027 -
Santiago Apa All Boys Active 99 / 111 40% 1 20.08.2027 -
Banfa Diakité Campobasso Active 109 / 99 40% 4 17.08.2027 -
Hachim Mastour Virtus Verona Active 78 / 91 40% 1 17.08.2027 -
Jack Vale Pro Vercelli Active 109 / 99 40% 4 13.08.2027 -
Ismet Sinani Bra Active 87 / 100 40% 1 13.08.2027 -
Nahuel Galardi Maipú Active 115 / 130 40% 1 13.08.2027 -
Jacopo Sassi Sambenedettese Active 116 / 104 40% 1 13.08.2027 -
Alexis Ferrante Ternana Active 103 / 100 40% 2 11.08.2027 -
Marco Bustillo Zamora Active 116 / 94 40% 3 11.08.2027 -
Damiano Lia Bra Active 74 / 95 58% 1 09.08.2027 Approve
Abubakar Bonni Enyimba Active 93 / 99 40% 1 08.08.2027 -
Miloš Bočić Altamura Active 90 / 99 40% 1 07.08.2027 -
Gavin Vlijter Giana Erminio Active 86 / 88 40% 3 06.08.2027 -
Tommaso Ravaglioli AlbinoLeffe Active 99 / 108 40% 4 05.08.2027 -
Luca Fabrizi Pianese Active 96 / 103 40% 3 04.08.2027 -
Franklyn Akammadu Bra Active 95 / 76 40% 1 02.08.2027 -
Giacomo Zecca Torres Active 106 / 113 40% 2 31.07.2027 -
Thiago Calone All Boys Active 108 / 101 40% 1 29.07.2027 -
Andrea Mandelli AlbinoLeffe Active 111 / 90 40% 1 28.07.2027 -
Nicola Dalmonte Trento Active 99 / 113 40% 1 28.07.2027 -
Eugenio D'Ursi Salernitana Active 102 / 99 40% 1 28.07.2027 -
Sean Parker Lecco Active 97 / 100 40% 1 28.07.2027 -
Alao Dabani Plateau United Active 84 / 100 40% 1 26.07.2027 -
Léo Abreu Picerno Active 102 / 99 40% 2 25.07.2027 -
Nicola Nanni Arzignano Active 94 / 110 40% 2 25.07.2027 -
Óttar Magnús Karlsson Renate Active 86 / 102 40% 1 23.07.2027 -
Claudio Morra Vicenza Active 110 / 110 40% 3 21.07.2027 -
Enzo González Defensores Active 106 / 87 40% 1 21.07.2027 -
Samson Tovide Colchester United Active 109 / 106 40% 3 20.07.2027 -
Zakaria Mansouri ES Setif Active 106 / 97 40% 1 20.07.2027 -
Alessio Nepi Perugia Active 116 / 97 40% 2 19.07.2027 -
Alexis Domínguez Chacarita Juniors Active 124 / 113 40% 1 19.07.2027 -
Daniele Sorrentino Torres Active 106 / 104 40% 2 18.07.2027 -
Bryan Nouvier Cavese Active 109 / 103 40% 1 17.07.2027 -
Marco Da Graca Novara Active 104 / 97 40% 1 17.07.2027 -
David Nieland Alcione Milano Active 99 / 95 40% 1 15.07.2027 -
Michael De Marchi Pergolettese Active 100 / 95 40% 5 12.07.2027 -
Alexandr Yushin Torpedo Moscow Active 118 / 108 40% 1 12.07.2027 -
Rodrigo Mosqueira Agropecuario Argentino Active 98 / 97 40% 1 10.07.2027 -
Giacomo Parigi Latina Active 98 / 115 40% 1 10.07.2027 -
José Álvarez Arsenal Tula Active 110 / 116 40% 3 08.07.2027 -
Gianluca D'Auria Potenza Active 112 / 99 40% 1 08.07.2027 -
Jonathan Cañete Portuguesa Active 118 / 109 40% 1 06.07.2027 -
Leonardo Bellini Pianese Active 87 / 104 40% 2 05.07.2027 -
Thomas Alberti Cavese Active 103 / 94 40% 3 02.07.2027 -
Destiny Efosa Egharevba Picerno Active 93 / 118 40% 1 02.07.2027 -
Alfie Chang Walsall Active 108 / 96 40% 1 02.07.2027 -
Emanuele Anastasia Cittadella Active 114 / 112 40% 1 02.07.2027 -
Kamran Aliev SKA Khabarovsk Active 95 / 119 40% 1 30.06.2027 -
Francesco Orlando Cavese Active 113 / 113 40% 1 28.06.2027 -
Edoardo Duca Ravenna Active 120 / 111 40% 1 28.06.2027 -
Callum Paterson Milton Keynes Dons Active 108 / 107 40% 1 28.06.2027 -
Jacobo Alcalde SKA Khabarovsk Active 89 / 105 40% 1 28.06.2027 -
Sulayman Jallow Vis Pesaro Active 86 / 91 40% 1 27.06.2027 -
Beryly Lubala Vicenza Active 114 / 89 40% 1 27.06.2027 -
King Udoh Pro Patria Active 111 / 108 40% 1 23.06.2027 -
Lorenzo De Leo Renate Active 87 / 108 40% 2 22.06.2027 -
Ivan Guzmán Lumezzane Active 95 / 79 58% 1 21.06.2027 Approve
Mattia Pagliuca Virtus Verona Active 80 / 91 40% 1 21.06.2027 -
Aleksej Golijanin Sokol Active 75 / 85 40% 1 20.06.2027 -
Giuseppe Guadagni Picerno Active 96 / 102 40% 1 19.06.2027 -
Simone Potop AlbinoLeffe Active 100 / 114 40% 1 19.06.2027 -
Christian Donadio Novara Active 111 / 103 40% 2 16.06.2027 -
Leonardo Morosini Carpi Active 89 / 102 40% 1 16.06.2027 -
Mattia Maita Benevento Active 111 / 133 40% 1 16.06.2027 -
Karlo Lulić Casarano Active 97 / 110 40% 1 13.06.2027 -
Ciro Loreto Cavese Active 111 / 91 40% 1 13.06.2027 -
Michele Ambrosini AlbinoLeffe Active 104 / 109 40% 1 12.06.2027 -
Đorđe Pantelić Spartak Kostroma Active 115 / 109 40% 2 11.06.2027 -
Nicolò Contiliano Cosenza Active 104 / 106 40% 1 11.06.2027 -
Nicola Murru Gubbio Active 101 / 103 40% 1 10.06.2027 -
Jérémie Broh Giugliano Active 116 / 112 40% 1 08.06.2027 -
Victor De Lucia Casertana Active 96 / 99 40% 2 07.06.2027 -
Emilio Di Fulvio Colegiales Active 98 / 105 40% 1 07.06.2027 -
Gabriel Monjes Hamrun Spartans Active 98 / 80 40% 2 30.01.2027 -
Solly Khunyedi Bloemfontein Celtic Active 102 / 96 40% 1 30.01.2027 -
Jaze Kabia Grimsby Town Rejected 84 / 99 40% 2 29.01.2027 Needs More Info
Eric Lanini Novara Active 113 / 106 40% 1 29.01.2027 -
Jean Hugues Eyango Colombe du Dja et Lobo Rejected 83 / 103 40% 1 28.01.2027 Needs More Info
Federico Ricci Sorrento Rejected 85 / 83 40% 1 28.01.2027 Needs More Info
Matteo Cardinali Hibernians Rejected 105 / 90 40% 1 27.01.2027 Needs More Info
Alberto Spagnoli Union Brescia Rejected 99 / 112 40% 1 27.01.2027 Needs More Info
Gianluca Contini Siracusa Rejected 104 / 110 40% 1 26.01.2027 Needs More Info
Simone Ianesi Pianese Rejected 108 / 88 40% 1 26.01.2027 Needs More Info
Bismark Asante Ashanti Gold Rejected 96 / 97 40% 1 25.01.2027 Needs More Info
Emil Stoev Slavia Sofia Active 113 / 110 40% 1 23.01.2027 -
Elia Boseggia Novara Active 110 / 111 40% 2 22.01.2027 -
Kristjan Matošević Triestina Active 104 / 104 40% 1 22.01.2027 -
Tom Žurga Montana Active 100 / 94 40% 1 19.01.2027 -
Gianmarco Vannucchi Benevento Active 109 / 123 40% 1 18.01.2027 -
Sam Nombe Milton Keynes Dons Active 117 / 97 40% 1 16.01.2027 -
Volodymyr Odariuk Poltava Active 89 / 117 40% 1 14.01.2027 -
Francesco D'Alterio Ternana Active 95 / 107 40% 1 13.01.2027 -
Tommaso Cucchietti Potenza Active 100 / 91 40% 1 11.01.2027 -
Fabrizio Alastra Altamura Active 111 / 117 40% 1 11.01.2027 -
Patrick Schmidt Tarxien Rainbows Active 113 / 111 40% 1 08.01.2027 -
Francesco Petito Dolomiti Bellunesi Active 94 / 108 40% 1 07.01.2027 -
Christopher Attys Triestina Active 83 / 101 51% 1 03.08.2026 -